TimeCST,TemperatureF,Dew PointF,Humidity,Sea Level PressureIn,VisibilityMPH,Wind Direction,Wind SpeedMPH,Gust SpeedMPH,PrecipitationIn,Events,Conditions,WindDirDegrees,DateUTC
12:55 AM,16.0,8.1,71,30.19,10.0,SW,5.8,-,N/A,,Clear,220,2013-01-16 06:55:00
1:55 AM,16.0,9.0,74,30.18,10.0,SW,5.8,-,N/A,,Clear,230,2013-01-16 07:55:00
2:55 AM,15.1,9.0,77,30.16,10.0,SSW,6.9,-,N/A,,Unknown,210,2013-01-16 08:55:00
3:55 AM,17.1,10.9,77,30.14,10.0,SW,6.9,-,N/A,,Clear,230,2013-01-16 09:55:00
4:55 AM,16.0,10.0,77,30.12,10.0,SW,5.8,-,N/A,,Clear,220,2013-01-16 10:55:00
5:55 AM,15.1,10.0,80,30.10,10.0,SW,4.6,-,N/A,,Clear,220,2013-01-16 11:55:00
6:55 AM,16.0,10.0,77,30.07,10.0,SSW,6.9,-,N/A,,Clear,200,2013-01-16 12:55:00
7:55 AM,19.0,10.9,71,30.07,10.0,SW,8.1,-,N/A,,Clear,220,2013-01-16 13:55:00
8:55 AM,21.9,14.0,72,30.08,10.0,SW,10.4,-,N/A,,Clear,220,2013-01-16 14:55:00
9:55 AM,28.0,17.1,63,30.07,10.0,SW,10.4,18.4,N/A,,Clear,230,2013-01-16 15:55:00
10:55 AM,32.0,18.0,56,30.05,10.0,SW,13.8,19.6,N/A,,Clear,220,2013-01-16 16:55:00
11:55 AM,37.0,18.0,46,30.01,10.0,SW,15.0,20.7,N/A,,Clear,230,2013-01-16 17:55:00
12:55 PM,39.9,19.9,45,29.99,10.0,WSW,12.7,20.7,N/A,,Clear,250,2013-01-16 18:55:00
1:55 PM,39.9,21.9,49,30.00,10.0,WSW,11.5,19.6,N/A,,Mostly Cloudy,240,2013-01-16 19:55:00
2:55 PM,39.0,21.9,50,30.01,10.0,SW,15.0,-,N/A,,Mostly Cloudy,230,2013-01-16 20:55:00
3:55 PM,39.9,23.0,51,30.03,10.0,WSW,9.2,-,N/A,,Clear,240,2013-01-16 21:55:00
4:55 PM,37.9,23.0,55,30.05,10.0,SW,6.9,-,N/A,,Clear,230,2013-01-16 22:55:00
5:55 PM,34.0,23.0,64,30.07,10.0,SSW,8.1,-,N/A,,Clear,210,2013-01-16 23:55:00
6:55 PM,33.1,23.0,66,30.11,10.0,SW,6.9,-,N/A,,Clear,220,2013-01-17 00:55:00
7:55 PM,33.1,24.1,70,30.12,10.0,SW,6.9,-,N/A,,Mostly Cloudy,220,2013-01-17 01:55:00
8:55 PM,33.1,24.1,70,30.12,10.0,SW,8.1,-,N/A,,Scattered Clouds,230,2013-01-17 02:55:00
9:55 PM,33.1,25.0,72,30.12,10.0,WSW,4.6,-,N/A,,Mostly Cloudy,240,2013-01-17 03:55:00
10:55 PM,33.1,25.0,72,30.14,10.0,West,8.1,-,N/A,,Overcast,280,2013-01-17 04:55:00
11:55 PM,32.0,26.1,79,30.17,10.0,NW,6.9,-,N/A,,Clear,320,2013-01-17 05:55:00